contact:dominique.lefevre@mio.osupytheas.fr, maurice.libes@osupytheas.fr, didier.mallarino@osupytheas.fr
Project:EMSO http://www.emso-fr.org/EMSO-France
Depth: 2436.0 m
Title:EMSO Ligure Ouest : Data MII capteur AQUADOPP
Date,Latitude,Longitude,X_East,Y_North,Z_Up,Amplitude_X,Amplitude_Y,Amplitude_Z,Batterie,SoundSpeed,Heading,Pitch,Roll,Pressure,TIS,Speed,Direction
, degrees North, degrees East, m.s-1, m.s-1,m.s-1, 1, 1, 1, Volt, m.s-1, degree, degree, degree, dbar, degree_C, m.s-1, degree
2021-08-20T00:04:03,42.805,6.029,-0.052,0.004,-0.017,102.0,102.0,101.0,13.4,1505.2,325.0,-0.7,1.8,2470.52,13.28,0.052,274.4
2021-08-20T00:07:03,42.805,6.029,-0.034,0.0,0.006,102.0,102.0,102.0,13.3,1505.2,325.8,-0.8,1.8,2470.499,13.28,0.034,270.0
2021-08-20T00:10:03,42.805,6.029,-0.05,0.008,0.009,102.0,103.0,101.0,13.4,1505.2,325.7,-0.8,1.8,2470.54,13.28,0.05,279.1
2021-08-20T00:13:03,42.805,6.029,-0.03,0.003,0.0,101.0,102.0,101.0,13.4,1505.2,325.1,-0.8,1.8,2470.493,13.28,0.03,275.7
2021-08-20T00:16:03,42.805,6.029,-0.057,0.015,-0.012,103.0,102.0,101.0,13.4,1505.2,329.1,-0.7,1.8,2470.483,13.28,0.058,284.7
2021-08-20T00:19:03,42.805,6.029,-0.051,0.01,-0.01,103.0,103.0,101.0,13.4,1505.2,328.3,-0.7,1.8,2470.462,13.28,0.051,281.1
2021-08-20T00:22:03,42.805,6.029,-0.032,0.028,-0.002,101.0,104.0,101.0,13.4,1505.2,328.5,-0.7,1.8,2470.483,13.28,0.042,311.2
2021-08-20T00:25:03,42.805,6.029,-0.047,0.016,-0.014,102.0,103.0,101.0,13.4,1505.2,326.0,-0.8,1.8,2470.523,13.28,0.049,288.8
2021-08-20T00:28:03,42.805,6.029,-0.036,0.029,0.009,102.0,101.0,102.0,13.3,1505.2,328.3,-0.7,1.8,2470.487,13.28,0.046,308.9
2021-08-20T00:31:03,42.805,6.029,-0.058,0.016,-0.007,102.0,103.0,101.0,13.4,1505.2,330.5,-0.8,1.8,2470.522,13.28,0.06,285.4
2021-08-20T00:34:03,42.805,6.029,-0.033,0.013,-0.017,103.0,102.0,100.0,13.3,1505.2,330.4,-0.7,1.8,2470.462,13.28,0.035,291.5
2021-08-20T00:37:03,42.805,6.029,-0.03,0.005,0.0,103.0,102.0,100.0,13.4,1505.2,330.7,-0.8,1.8,2470.455,13.28,0.03,279.5
2021-08-20T00:40:03,42.805,6.029,-0.046,0.003,-0.015,101.0,102.0,102.0,13.4,1505.2,327.3,-0.8,1.8,2470.486,13.28,0.046,273.7
2021-08-20T00:43:03,42.805,6.029,-0.058,0.016,-0.018,103.0,103.0,101.0,13.4,1505.2,327.0,-0.7,1.8,2470.464,13.28,0.06,285.4
2021-08-20T00:46:03,42.805,6.029,-0.044,0.007,-0.006,103.0,102.0,101.0,13.3,1505.2,331.0,-0.7,1.8,2470.477,13.28,0.044,279.0
2021-08-20T00:49:03,42.805,6.029,-0.066,0.009,-0.028,103.0,104.0,102.0,13.4,1505.2,328.5,-0.7,1.8,2470.467,13.28,0.066,277.8
2021-08-20T00:52:03,42.805,6.029,-0.02,0.003,-0.015,103.0,102.0,101.0,13.4,1505.2,330.4,-0.7,1.8,2470.468,13.28,0.02,278.5
2021-08-20T00:55:03,42.805,6.029,-0.044,0.017,-0.008,103.0,104.0,101.0,13.4,1505.2,325.9,-0.8,1.8,2470.485,13.28,0.047,291.1
2021-08-20T00:58:03,42.805,6.029,-0.041,0.022,-0.004,106.0,104.0,101.0,13.4,1505.2,327.0,-0.7,1.8,2470.459,13.28,0.046,298.2
2021-08-20T01:04:03,42.805,6.029,-0.029,0.035,0.054,105.0,105.0,104.0,13.4,1505.2,329.7,-0.7,1.8,2470.476,13.28,0.045,320.4
2021-08-20T01:07:02,42.805,6.029,-0.03,0.015,0.021,103.0,103.0,102.0,13.4,1505.2,325.4,-0.7,1.8,2470.499,13.28,0.033,296.6
2021-08-20T01:10:03,42.805,6.029,-0.035,0.026,0.007,102.0,103.0,103.0,13.3,1505.2,330.2,-0.8,1.8,2470.46,13.28,0.043,306.6
2021-08-20T01:13:03,42.805,6.029,-0.047,-0.004,-0.036,103.0,103.0,101.0,13.3,1505.2,326.7,-0.7,1.8,2470.461,13.28,0.047,265.1
2021-08-20T01:16:03,42.805,6.029,-0.023,-0.002,-0.02,103.0,104.0,102.0,13.3,1505.2,328.4,-0.7,1.8,2470.508,13.28,0.023,265.0
2021-08-20T01:19:03,42.805,6.029,-0.033,0.019,0.012,103.0,103.0,101.0,13.4,1505.2,326.7,-0.7,1.8,2470.475,13.28,0.038,299.9
2021-08-20T01:22:03,42.805,6.029,-0.041,0.023,-0.013,103.0,104.0,102.0,13.4,1505.2,330.4,-0.8,1.8,2470.498,13.28,0.047,299.3
2021-08-20T01:25:03,42.805,6.029,-0.051,0.029,0.017,103.0,103.0,101.0,13.3,1505.2,328.7,-0.7,1.8,2470.535,13.28,0.058,299.6
2021-08-20T01:28:03,42.805,6.029,-0.044,0.018,-0.003,103.0,102.0,102.0,13.4,1505.2,325.3,-0.7,1.8,2470.449,13.28,0.047,292.2
2021-08-20T01:31:03,42.805,6.029,-0.022,0.016,-0.006,105.0,102.0,101.0,13.4,1505.2,328.3,-0.7,1.9,2470.491,13.28,0.027,306.0
2021-08-20T01:34:03,42.805,6.029,-0.033,0.002,0.04,103.0,103.0,101.0,13.4,1505.2,329.0,-0.7,1.8,2470.483,13.28,0.033,273.5
2021-08-20T01:37:03,42.805,6.029,-0.04,0.032,0.032,104.0,103.0,100.0,13.4,1505.2,327.6,-0.8,1.8,2470.466,13.28,0.051,308.7
2021-08-20T01:40:03,42.805,6.029,-0.026,0.021,-0.002,103.0,103.0,102.0,13.4,1505.2,329.0,-0.8,1.8,2470.467,13.28,0.033,308.9
2021-08-20T01:43:03,42.805,6.029,-0.026,0.024,-0.002,103.0,103.0,101.0,13.3,1505.2,325.7,-0.8,1.8,2470.489,13.28,0.035,312.7
2021-08-20T01:46:03,42.805,6.029,-0.032,0.018,-0.016,104.0,103.0,103.0,13.4,1505.2,326.4,-0.7,1.8,2470.464,13.28,0.036,299.4
2021-08-20T01:49:03,42.805,6.029,-0.025,0.026,0.015,103.0,103.0,102.0,13.4,1505.2,329.2,-0.8,1.9,2470.469,13.28,0.036,316.1
2021-08-20T01:52:03,42.805,6.029,-0.014,0.023,0.02,103.0,104.0,101.0,13.4,1505.2,329.4,-0.8,1.8,2470.483,13.28,0.026,328.7
2021-08-20T01:55:03,42.805,6.029,-0.019,0.01,0.0,105.0,103.0,102.0,13.4,1505.2,327.7,-0.7,1.8,2470.479,13.28,0.021,297.8
2021-08-20T01:58:03,42.805,6.029,-0.038,0.034,0.018,105.0,103.0,100.0,13.3,1505.2,329.0,-0.7,1.8,2470.506,13.28,0.05,311.8
2021-08-20T02:04:03,42.805,6.029,-0.041,0.019,-0.009,103.0,102.0,101.0,13.4,1505.2,329.3,-0.8,1.8,2470.513,13.28,0.045,294.9
2021-08-20T02:07:03,42.805,6.029,-0.016,-0.002,-0.009,103.0,103.0,101.0,13.4,1505.2,328.3,-0.7,1.8,2470.47,13.28,0.016,262.9
2021-08-20T02:10:03,42.805,6.029,-0.018,0.005,0.004,102.0,102.0,101.0,13.4,1505.2,329.5,-0.8,1.8,2470.52,13.28,0.018,285.5
2021-08-20T02:13:03,42.805,6.029,-0.021,0.014,-0.011,103.0,103.0,102.0,13.4,1505.2,325.7,-0.8,1.8,2470.521,13.28,0.025,303.7
2021-08-20T02:16:03,42.805,6.029,-0.031,0.045,0.004,101.0,104.0,101.0,13.4,1505.2,330.3,-0.8,1.8,2470.507,13.28,0.054,325.4
2021-08-20T02:19:03,42.805,6.029,-0.028,0.02,-0.003,103.0,104.0,100.0,13.4,1505.2,327.0,-0.7,1.8,2470.506,13.28,0.034,305.5
2021-08-20T02:22:03,42.805,6.029,-0.026,0.02,0.017,102.0,102.0,102.0,13.4,1505.2,327.6,-0.8,1.8,2470.493,13.28,0.032,307.6
2021-08-20T02:25:03,42.805,6.029,-0.038,0.031,-0.018,102.0,104.0,101.0,13.4,1505.2,328.6,-0.7,1.9,2470.561,13.28,0.049,309.2
2021-08-20T02:28:03,42.805,6.029,-0.039,0.01,-0.008,103.0,103.0,101.0,13.4,1505.2,328.2,-0.7,1.8,2470.491,13.28,0.04,284.4
2021-08-20T02:31:03,42.805,6.029,-0.057,0.029,0.016,103.0,101.0,102.0,13.4,1505.2,327.3,-0.8,1.8,2470.482,13.28,0.063,297.0
2021-08-20T02:34:03,42.805,6.029,-0.027,0.019,0.0,103.0,103.0,101.0,13.4,1505.2,327.1,-0.7,1.8,2470.465,13.28,0.033,305.1
2021-08-20T02:37:03,42.805,6.029,-0.042,0.036,0.018,102.0,104.0,101.0,13.4,1505.2,329.1,-0.8,1.8,2470.499,13.28,0.055,310.6
2021-08-20T02:40:03,42.805,6.029,-0.038,0.012,0.007,103.0,102.0,101.0,13.3,1505.2,327.4,-0.8,1.8,2470.501,13.28,0.039,287.5
2021-08-20T02:43:03,42.805,6.029,-0.045,0.009,0.002,102.0,101.0,101.0,13.4,1505.2,325.7,-0.8,1.8,2470.486,13.28,0.045,281.3
2021-08-20T02:46:03,42.805,6.029,-0.015,-0.01,-0.002,104.0,100.0,101.0,13.3,1505.2,327.1,-0.7,1.9,2470.475,13.28,0.018,236.3
2021-08-20T02:49:03,42.805,6.029,-0.04,0.011,-0.016,102.0,103.0,102.0,13.3,1505.2,327.5,-0.7,1.8,2470.523,13.28,0.041,285.4
2021-08-20T02:52:03,42.805,6.029,-0.02,0.01,-0.005,102.0,103.0,101.0,13.4,1505.2,328.4,-0.8,1.8,2470.452,13.28,0.022,296.6
2021-08-20T02:55:03,42.805,6.029,-0.022,0.022,0.018,102.0,102.0,101.0,13.4,1505.2,329.2,-0.8,1.8,2470.47,13.28,0.031,315.0
2021-08-20T02:58:03,42.805,6.029,-0.026,0.011,0.0,102.0,101.0,102.0,13.3,1505.2,327.6,-0.7,1.8,2470.511,13.29,0.028,292.9
2021-08-20T03:04:03,42.805,6.029,-0.033,0.004,0.001,103.0,103.0,101.0,13.3,1505.2,330.0,-0.7,1.8,2470.54,13.28,0.033,276.9
2021-08-20T03:07:03,42.805,6.029,-0.04,0.015,-0.029,102.0,103.0,101.0,13.4,1505.2,325.1,-0.7,1.8,2470.512,13.28,0.042,290.6
2021-08-20T03:10:03,42.805,6.029,-0.033,0.019,-0.017,103.0,104.0,100.0,13.4,1505.2,328.6,-0.8,1.9,2470.531,13.28,0.038,299.9
2021-08-20T03:13:03,42.805,6.029,-0.029,0.001,0.014,102.0,102.0,101.0,13.4,1505.2,328.5,-0.7,1.8,2470.551,13.28,0.029,272.0
2021-08-20T03:16:03,42.805,6.029,-0.04,0.0,-0.015,103.0,103.0,101.0,13.4,1505.2,329.0,-0.8,1.8,2470.526,13.28,0.04,270.0
2021-08-20T03:19:03,42.805,6.029,-0.015,0.017,-0.004,101.0,103.0,102.0,13.3,1505.2,328.6,-0.8,1.8,2470.503,13.28,0.022,318.6
2021-08-20T03:22:03,42.805,6.029,-0.065,0.021,-0.007,102.0,102.0,101.0,13.4,1505.2,328.2,-0.7,1.8,2470.488,13.28,0.068,287.9
2021-08-20T03:25:03,42.805,6.029,-0.017,0.002,0.007,102.0,103.0,101.0,13.4,1505.2,326.1,-0.8,1.8,2470.5,13.28,0.017,276.7
2021-08-20T03:28:03,42.805,6.029,-0.033,0.027,-0.031,102.0,102.0,102.0,13.3,1505.2,330.6,-0.8,1.8,2470.517,13.28,0.042,309.3
2021-08-20T03:31:03,42.805,6.029,-0.03,0.027,0.028,102.0,102.0,101.0,13.3,1505.2,329.0,-0.8,1.8,2470.534,13.28,0.04,312.0
2021-08-20T03:34:03,42.805,6.029,-0.007,0.02,0.01,102.0,102.0,102.0,13.3,1505.2,330.6,-0.7,1.8,2470.491,13.28,0.021,340.7
2021-08-20T03:37:03,42.805,6.029,-0.044,0.0,-0.014,104.0,101.0,102.0,13.4,1505.2,325.3,-0.7,1.8,2470.483,13.28,0.044,270.0
2021-08-20T03:40:03,42.805,6.029,-0.029,0.008,-0.002,104.0,101.0,102.0,13.4,1505.2,325.9,-0.7,1.9,2470.527,13.28,0.03,285.4
2021-08-20T03:43:03,42.805,6.029,-0.033,0.005,-0.031,102.0,104.0,100.0,13.3,1505.2,326.6,-0.8,1.8,2470.554,13.28,0.033,278.6
2021-08-20T03:46:03,42.805,6.029,-0.047,0.0,-0.02,104.0,103.0,101.0,13.3,1505.2,328.5,-0.8,1.8,2470.514,13.28,0.047,270.0
2021-08-20T03:49:03,42.805,6.029,-0.03,0.021,0.014,102.0,104.0,102.0,13.3,1505.2,327.3,-0.8,1.8,2470.515,13.28,0.036,305.0
2021-08-20T03:52:03,42.805,6.029,-0.021,0.018,-0.006,102.0,103.0,102.0,13.4,1505.2,327.0,-0.7,1.8,2470.516,13.28,0.027,310.6
2021-08-20T03:55:03,42.805,6.029,-0.034,0.016,-0.018,103.0,101.0,101.0,13.3,1505.2,327.2,-0.7,1.8,2470.521,13.28,0.037,295.2
2021-08-20T03:58:03,42.805,6.029,-0.049,-0.002,-0.024,102.0,101.0,101.0,13.4,1505.2,327.3,-0.7,1.9,2470.525,13.28,0.049,267.7
2021-08-20T04:04:03,42.805,6.029,-0.03,0.017,-0.023,103.0,103.0,102.0,13.3,1505.2,325.1,-0.8,1.8,2470.572,13.28,0.034,299.5
2021-08-20T04:07:03,42.805,6.029,-0.027,0.016,0.042,102.0,104.0,101.0,13.3,1505.2,328.3,-0.8,1.9,2470.583,13.28,0.031,300.7
2021-08-20T04:10:03,42.805,6.029,-0.036,0.001,-0.032,104.0,102.0,101.0,13.4,1505.2,329.0,-0.7,1.9,2470.562,13.28,0.036,271.6
2021-08-20T04:13:03,42.805,6.029,-0.036,0.012,-0.009,103.0,103.0,102.0,13.4,1505.2,327.0,-0.7,1.8,2470.591,13.28,0.037,288.4
2021-08-20T04:16:03,42.805,6.029,-0.031,0.018,0.001,103.0,103.0,101.0,13.4,1505.2,331.0,-0.7,1.8,2470.615,13.28,0.035,300.1
2021-08-20T04:19:03,42.805,6.029,-0.022,0.018,-0.043,102.0,103.0,101.0,13.3,1505.2,328.8,-0.8,1.8,2470.557,13.28,0.028,309.3
2021-08-20T04:22:03,42.805,6.029,-0.042,-0.017,-0.01,102.0,102.0,102.0,13.3,1505.2,330.0,-0.8,1.8,2470.545,13.28,0.045,248.0
2021-08-20T04:25:03,42.805,6.029,-0.032,0.009,0.0,101.0,104.0,102.0,13.4,1505.2,327.6,-0.7,1.8,2470.519,13.28,0.033,285.7
2021-08-20T04:28:03,42.805,6.029,-0.047,0.007,0.021,103.0,103.0,101.0,13.3,1505.2,329.0,-0.8,1.8,2470.543,13.28,0.047,278.5
2021-08-20T04:31:03,42.805,6.029,-0.037,0.006,-0.032,101.0,103.0,102.0,13.4,1505.2,327.8,-0.7,1.8,2470.558,13.28,0.037,279.2
2021-08-20T04:34:03,42.805,6.029,-0.026,0.04,0.031,102.0,103.0,100.0,13.4,1505.2,327.3,-0.7,1.8,2470.56,13.28,0.047,327.0
2021-08-20T04:37:03,42.805,6.029,-0.046,0.0,-0.032,104.0,101.0,102.0,13.4,1505.2,327.8,-0.8,1.8,2470.554,13.28,0.046,270.0
2021-08-20T04:40:03,42.805,6.029,-0.032,0.014,-0.003,105.0,103.0,101.0,13.4,1505.2,328.4,-0.8,1.8,2470.54,13.28,0.034,293.6
2021-08-20T04:43:03,42.805,6.029,-0.027,0.005,-0.008,102.0,103.0,101.0,13.3,1505.2,325.6,-0.7,1.8,2470.537,13.28,0.027,280.5
2021-08-20T04:46:03,42.805,6.029,-0.009,0.005,0.025,103.0,102.0,101.0,13.4,1505.2,328.0,-0.7,1.8,2470.571,13.28,0.01,299.1
2021-08-20T04:49:03,42.805,6.029,-0.045,0.024,-0.01,102.0,103.0,102.0,13.4,1505.2,329.2,-0.8,1.8,2470.607,13.28,0.051,298.1
2021-08-20T04:52:03,42.805,6.029,-0.061,0.038,0.011,102.0,103.0,103.0,13.3,1505.2,328.4,-0.7,1.8,2470.592,13.28,0.071,301.9
2021-08-20T04:55:03,42.805,6.029,-0.039,-0.001,-0.026,103.0,103.0,101.0,13.3,1505.2,328.4,-0.8,1.8,2470.555,13.28,0.039,268.5
2021-08-20T04:58:03,42.805,6.029,-0.039,0.013,-0.004,102.0,103.0,103.0,13.4,1505.2,328.7,-0.8,1.8,2470.559,13.28,0.041,288.4
2021-08-20T05:04:03,42.805,6.029,-0.053,0.004,-0.003,103.0,102.0,101.0,13.4,1505.2,327.3,-0.8,1.8,2470.533,13.28,0.053,274.3
2021-08-20T05:07:03,42.805,6.029,-0.048,0.013,-0.028,102.0,103.0,101.0,13.3,1505.2,329.9,-0.8,1.8,2470.579,13.28,0.049,285.2
2021-08-20T05:10:03,42.805,6.029,-0.037,0.009,-0.027,103.0,103.0,100.0,13.4,1505.2,327.7,-0.7,1.8,2470.565,13.28,0.038,283.7
2021-08-20T05:13:03,42.805,6.029,-0.016,0.023,0.009,103.0,101.0,102.0,13.4,1505.2,328.0,-0.7,1.8,2470.553,13.28,0.028,325.2
2021-08-20T05:16:03,42.805,6.029,-0.051,0.033,-0.006,103.0,102.0,100.0,13.3,1505.2,328.8,-0.7,1.8,2470.538,13.28,0.06,302.9
2021-08-20T05:19:03,42.805,6.029,-0.043,0.008,-0.013,103.0,104.0,102.0,13.4,1505.2,326.6,-0.7,1.8,2470.538,13.28,0.043,280.5
2021-08-20T05:22:03,42.805,6.029,-0.045,0.019,-0.015,103.0,103.0,101.0,13.3,1505.2,331.2,-0.7,1.8,2470.608,13.28,0.048,292.9
2021-08-20T05:25:03,42.805,6.029,-0.031,0.024,0.021,103.0,103.0,101.0,13.4,1505.2,326.8,-0.7,1.8,2470.592,13.28,0.039,307.7
2021-08-20T05:28:03,42.805,6.029,-0.021,0.0,-0.002,103.0,103.0,101.0,13.4,1505.2,325.3,-0.7,1.8,2470.57,13.28,0.021,270.0
2021-08-20T05:31:03,42.805,6.029,-0.018,0.006,0.007,103.0,101.0,103.0,13.4,1505.2,326.9,-0.8,1.8,2470.537,13.28,0.018,288.4
2021-08-20T05:34:03,42.805,6.029,-0.029,0.008,0.012,104.0,100.0,102.0,13.3,1505.2,327.8,-0.7,1.8,2470.545,13.28,0.03,285.4
2021-08-20T05:37:03,42.805,6.029,-0.027,0.018,0.008,102.0,103.0,101.0,13.4,1505.2,325.1,-0.8,1.8,2470.531,13.28,0.032,303.7
2021-08-20T05:40:03,42.805,6.029,-0.046,0.014,0.004,103.0,102.0,101.0,13.4,1505.2,330.5,-0.8,1.9,2470.564,13.28,0.048,286.9
2021-08-20T05:43:03,42.805,6.029,-0.035,0.014,-0.04,103.0,104.0,100.0,13.4,1505.2,329.6,-0.8,1.8,2470.582,13.28,0.037,291.8
2021-08-20T05:46:03,42.805,6.029,-0.06,0.018,-0.025,102.0,103.0,102.0,13.4,1505.2,328.6,-0.8,1.8,2470.544,13.28,0.062,286.7
2021-08-20T05:49:03,42.805,6.029,-0.046,-0.011,-0.048,104.0,101.0,101.0,13.4,1505.2,329.2,-0.8,1.8,2470.557,13.28,0.047,256.6
2021-08-20T05:52:03,42.805,6.029,-0.049,0.002,-0.026,104.0,102.0,102.0,13.4,1505.2,325.8,-0.8,1.8,2470.56,13.28,0.049,272.3
2021-08-20T05:55:03,42.805,6.029,-0.049,0.022,-0.026,102.0,103.0,102.0,13.4,1505.2,329.1,-0.7,1.9,2470.531,13.28,0.053,294.2
2021-08-20T05:58:03,42.805,6.029,-0.052,0.025,-0.033,102.0,104.0,101.0,13.4,1505.2,330.1,-0.8,1.8,2470.577,13.28,0.057,295.7
2021-08-20T06:04:03,42.805,6.029,-0.045,0.007,0.02,101.0,102.0,101.0,13.4,1505.2,327.5,-0.8,1.8,2470.577,13.28,0.045,278.8
2021-08-20T06:07:03,42.805,6.029,-0.065,0.027,-0.03,103.0,101.0,101.0,13.4,1505.2,326.9,-0.7,1.8,2470.562,13.28,0.07,292.6
2021-08-20T06:10:03,42.805,6.029,-0.053,0.024,0.007,102.0,102.0,101.0,13.4,1505.2,326.7,-0.8,1.8,2470.597,13.28,0.058,294.4
2021-08-20T06:13:03,42.805,6.029,-0.04,0.034,-0.013,103.0,101.0,101.0,13.3,1505.2,329.0,-0.7,1.8,2470.573,13.28,0.052,310.4
2021-08-20T06:16:03,42.805,6.029,-0.059,0.0,-0.016,102.0,105.0,101.0,13.3,1505.2,327.4,-0.8,1.8,2470.589,13.28,0.058,270.0
2021-08-20T06:19:03,42.805,6.029,-0.041,0.03,0.013,102.0,102.0,102.0,13.4,1505.2,329.1,-0.8,1.8,2470.569,13.28,0.05,306.2
2021-08-20T06:22:03,42.805,6.029,-0.032,0.004,0.012,103.0,100.0,101.0,13.4,1505.2,329.2,-0.7,1.8,2470.555,13.28,0.032,277.1
2021-08-20T06:25:03,42.805,6.029,-0.027,0.022,0.009,103.0,102.0,101.0,13.4,1505.2,328.6,-0.8,1.8,2470.566,13.28,0.034,309.2
2021-08-20T06:28:03,42.805,6.029,-0.049,0.005,-0.027,103.0,101.0,102.0,13.4,1505.2,327.5,-0.8,1.8,2470.56,13.28,0.049,275.8
2021-08-20T06:31:03,42.805,6.029,-0.021,0.013,-0.011,103.0,101.0,101.0,13.4,1505.2,326.0,-0.7,1.8,2470.549,13.28,0.024,301.8
2021-08-20T06:34:03,42.805,6.029,-0.047,0.016,0.0,103.0,102.0,101.0,13.3,1505.2,325.3,-0.8,1.9,2470.544,13.28,0.049,288.8
2021-08-20T06:37:03,42.805,6.029,-0.015,0.004,-0.02,102.0,102.0,101.0,13.3,1505.2,330.5,-0.8,1.8,2470.565,13.28,0.015,284.9
2021-08-20T06:40:03,42.805,6.029,-0.023,0.015,0.004,102.0,101.0,101.0,13.4,1505.2,330.7,-0.7,1.8,2470.562,13.28,0.027,303.1
2021-08-20T06:43:03,42.805,6.029,-0.058,0.011,-0.011,102.0,101.0,101.0,13.4,1505.2,326.1,-0.8,1.8,2470.545,13.28,0.059,280.7
2021-08-20T06:46:03,42.805,6.029,-0.027,0.009,0.0,102.0,103.0,100.0,13.4,1505.2,325.4,-0.8,1.8,2470.528,13.28,0.028,288.4
2021-08-20T06:49:03,42.805,6.029,-0.043,0.021,-0.012,103.0,102.0,101.0,13.4,1505.2,325.2,-0.8,1.8,2470.574,13.28,0.047,296.0
2021-08-20T06:52:03,42.805,6.029,-0.037,0.015,-0.017,102.0,102.0,100.0,13.4,1505.2,330.5,-0.7,1.8,2470.584,13.28,0.039,292.1
2021-08-20T06:55:03,42.805,6.029,-0.039,0.012,-0.02,102.0,102.0,101.0,13.4,1505.2,329.2,-0.8,1.8,2470.543,13.28,0.04,287.1
2021-08-20T06:58:03,42.805,6.029,-0.029,-0.001,-0.019,104.0,101.0,100.0,13.3,1505.2,329.4,-0.7,1.8,2470.574,13.28,0.029,268.0
2021-08-20T07:04:03,42.805,6.029,-0.057,0.034,-0.035,101.0,102.0,101.0,13.3,1505.2,326.4,-0.8,1.8,2470.612,13.28,0.066,300.8
2021-08-20T07:07:03,42.805,6.029,-0.044,0.021,-0.003,102.0,101.0,100.0,13.4,1505.2,325.6,-0.8,1.9,2470.535,13.28,0.048,295.5
2021-08-20T07:10:03,42.805,6.029,-0.027,0.026,0.0,101.0,101.0,100.0,13.3,1505.2,327.6,-0.7,1.8,2470.532,13.28,0.037,313.9
2021-08-20T07:13:03,42.805,6.029,-0.054,0.009,-0.044,101.0,102.0,100.0,13.3,1505.2,329.3,-0.8,1.8,2470.565,13.28,0.054,279.5
2021-08-20T07:16:03,42.805,6.029,-0.04,0.01,-0.012,102.0,102.0,100.0,13.4,1505.2,330.3,-0.7,1.8,2470.599,13.28,0.041,284.0
2021-08-20T07:19:03,42.805,6.029,-0.047,0.009,0.001,101.0,102.0,101.0,13.4,1505.2,327.5,-0.7,1.8,2470.572,13.28,0.047,280.8
2021-08-20T07:22:03,42.805,6.029,-0.02,0.025,0.003,103.0,102.0,100.0,13.4,1505.2,324.8,-0.8,1.8,2470.571,13.28,0.032,321.3
2021-08-20T07:25:03,42.805,6.029,-0.029,0.03,-0.02,103.0,103.0,101.0,13.4,1505.2,327.4,-0.8,1.8,2470.552,13.28,0.041,316.0
2021-08-20T07:28:03,42.805,6.029,-0.026,0.038,-0.005,100.0,103.0,101.0,13.4,1505.2,330.4,-0.8,1.8,2470.523,13.28,0.046,325.6
2021-08-20T07:31:03,42.805,6.029,-0.027,0.031,0.025,102.0,103.0,100.0,13.3,1505.2,326.8,-0.7,1.8,2470.516,13.28,0.041,318.9
2021-08-20T07:34:03,42.805,6.029,-0.055,0.011,-0.008,103.0,102.0,100.0,13.4,1505.2,326.3,-0.8,1.8,2470.528,13.28,0.056,281.3
2021-08-20T07:37:03,42.805,6.029,-0.052,0.019,-0.012,100.0,101.0,101.0,13.4,1505.2,328.5,-0.7,1.8,2470.52,13.28,0.055,290.1
2021-08-20T07:40:03,42.805,6.029,-0.04,0.009,-0.035,101.0,101.0,101.0,13.4,1505.2,325.6,-0.8,1.8,2470.542,13.28,0.041,282.7
2021-08-20T07:43:03,42.805,6.029,-0.012,0.015,0.004,101.0,102.0,100.0,13.4,1505.2,325.2,-0.7,1.8,2470.557,13.28,0.019,321.3
2021-08-20T07:46:03,42.805,6.029,-0.047,0.016,-0.013,101.0,100.0,101.0,13.3,1505.2,328.7,-0.7,1.8,2470.508,13.28,0.049,288.8
2021-08-20T07:49:03,42.805,6.029,-0.014,0.035,0.023,100.0,100.0,101.0,13.4,1505.2,327.6,-0.7,1.8,2470.524,13.28,0.037,338.2
2021-08-20T07:52:03,42.805,6.029,-0.038,-0.001,0.009,101.0,101.0,101.0,13.4,1505.2,326.1,-0.7,1.8,2470.525,13.28,0.038,268.5
2021-08-20T07:55:03,42.805,6.029,-0.031,0.014,0.027,101.0,103.0,100.0,13.3,1505.2,327.3,-0.8,1.8,2470.52,13.28,0.034,294.3
2021-08-20T07:58:03,42.805,6.029,-0.023,-0.002,-0.016,103.0,100.0,100.0,13.4,1505.2,330.7,-0.8,1.8,2470.47,13.28,0.023,265.0
2021-08-20T08:04:03,42.805,6.029,-0.032,0.02,-0.002,101.0,101.0,100.0,13.4,1505.2,327.2,-0.8,1.8,2470.558,13.28,0.037,302.0
2021-08-20T08:07:03,42.805,6.029,-0.038,0.012,0.0,102.0,101.0,100.0,13.4,1505.2,330.3,-0.8,1.8,2470.513,13.28,0.039,287.5
2021-08-20T08:10:03,42.805,6.029,-0.033,0.032,-0.002,101.0,101.0,101.0,13.3,1505.2,329.0,-0.7,1.8,2470.545,13.28,0.045,314.1
2021-08-20T08:13:03,42.805,6.029,-0.03,0.008,0.0,101.0,101.0,101.0,13.3,1505.2,329.2,-0.7,1.8,2470.472,13.28,0.031,284.9
2021-08-20T08:16:03,42.805,6.029,-0.047,0.021,-0.017,100.0,102.0,100.0,13.4,1505.2,328.6,-0.8,1.8,2470.5,13.28,0.051,294.1
2021-08-20T08:19:03,42.805,6.029,-0.018,-0.012,-0.047,101.0,102.0,100.0,13.3,1505.2,327.3,-0.8,1.9,2470.51,13.28,0.021,236.3
2021-08-20T08:22:03,42.805,6.029,-0.019,-0.013,-0.049,101.0,102.0,100.0,13.3,1505.2,327.3,-0.8,1.8,2470.494,13.28,0.023,235.6
2021-08-20T08:25:03,42.805,6.029,-0.006,0.002,-0.005,100.0,102.0,100.0,13.4,1505.2,327.7,-0.8,1.8,2470.522,13.28,0.006,288.4
2021-08-20T08:28:03,42.805,6.029,-0.016,0.006,-0.021,100.0,100.0,101.0,13.4,1505.2,330.6,-0.7,1.8,2470.514,13.28,0.017,290.6
2021-08-20T08:31:03,42.805,6.029,-0.039,0.005,-0.019,101.0,102.0,100.0,13.4,1505.2,327.8,-0.7,1.8,2470.518,13.28,0.039,277.3
2021-08-20T08:34:03,42.805,6.029,-0.02,0.017,-0.016,101.0,101.0,101.0,13.4,1505.2,330.0,-0.8,1.8,2470.479,13.28,0.026,310.4
2021-08-20T08:37:03,42.805,6.029,-0.033,0.028,-0.009,102.0,101.0,99.0,13.3,1505.2,326.6,-0.7,1.8,2470.509,13.28,0.043,310.3
2021-08-20T08:40:03,42.805,6.029,-0.022,0.007,-0.012,101.0,101.0,102.0,13.4,1505.2,330.8,-0.7,1.8,2470.525,13.28,0.023,287.6
2021-08-20T08:43:03,42.805,6.029,-0.049,0.03,-0.031,103.0,99.0,100.0,13.4,1505.2,327.5,-0.7,1.8,2470.494,13.28,0.057,301.5
2021-08-20T08:46:03,42.805,6.029,-0.031,0.003,-0.012,101.0,102.0,100.0,13.4,1505.2,330.8,-0.7,1.8,2470.482,13.28,0.031,275.5
2021-08-20T08:49:03,42.805,6.029,-0.036,0.014,-0.031,101.0,100.0,101.0,13.4,1505.2,328.1,-0.7,1.8,2470.438,13.28,0.038,291.2
2021-08-20T08:52:03,42.805,6.029,-0.013,0.015,0.017,100.0,101.0,101.0,13.4,1505.2,327.5,-0.7,1.8,2470.509,13.28,0.019,319.1
2021-08-20T08:55:03,42.805,6.029,-0.005,0.018,-0.001,100.0,101.0,101.0,13.4,1505.2,328.3,-0.7,1.8,2470.478,13.28,0.018,344.5
2021-08-20T08:58:03,42.805,6.029,-0.031,0.044,0.017,100.0,102.0,100.0,13.4,1505.2,328.8,-0.7,1.8,2470.459,13.28,0.053,324.8
2021-08-20T09:04:03,42.805,6.029,-0.023,0.005,-0.012,101.0,104.0,100.0,13.4,1505.2,329.4,-0.8,1.8,2470.508,13.28,0.023,282.3
2021-08-20T09:07:03,42.805,6.029,-0.035,0.022,-0.006,98.0,102.0,101.0,13.4,1505.2,327.5,-0.7,1.8,2470.48,13.28,0.041,302.2
2021-08-20T09:10:03,42.805,6.029,-0.024,0.023,-0.004,101.0,101.0,100.0,13.4,1505.2,329.0,-0.7,1.8,2470.485,13.28,0.033,313.8
2021-08-20T09:13:03,42.805,6.029,-0.017,0.023,-0.023,101.0,101.0,100.0,13.4,1505.2,326.9,-0.8,1.8,2470.496,13.28,0.028,323.5
2021-08-20T09:16:03,42.805,6.029,-0.013,-0.001,-0.01,102.0,102.0,100.0,13.3,1505.2,326.6,-0.7,1.9,2470.492,13.28,0.013,265.6
2021-08-20T09:19:03,42.805,6.029,-0.024,-0.006,-0.012,100.0,102.0,100.0,13.3,1505.2,327.9,-0.8,1.9,2470.498,13.28,0.024,256.0
2021-08-20T09:22:03,42.805,6.029,-0.033,0.021,0.015,102.0,101.0,102.0,13.4,1505.2,330.1,-0.7,1.8,2470.469,13.28,0.039,302.5
2021-08-20T09:25:03,42.805,6.029,-0.041,0.0,-0.029,102.0,100.0,100.0,13.3,1505.2,328.6,-0.8,1.8,2470.504,13.28,0.041,270.0
2021-08-20T09:28:03,42.805,6.029,-0.041,0.013,0.018,101.0,102.0,100.0,13.4,1505.2,330.2,-0.7,1.8,2470.45,13.28,0.043,287.6
2021-08-20T09:31:03,42.805,6.029,-0.015,0.009,0.007,101.0,101.0,101.0,13.4,1505.2,325.8,-0.8,1.8,2470.496,13.28,0.017,301.0
2021-08-20T09:34:03,42.805,6.029,-0.016,-0.009,-0.033,102.0,101.0,100.0,13.3,1505.2,328.3,-0.8,1.8,2470.478,13.28,0.018,240.6
2021-08-20T09:37:03,42.805,6.029,-0.015,0.024,0.006,101.0,104.0,101.0,13.3,1505.2,328.3,-0.8,1.8,2470.475,13.28,0.028,328.0
2021-08-20T09:40:03,42.805,6.029,-0.028,0.013,-0.006,101.0,102.0,101.0,13.3,1505.2,327.0,-0.8,1.8,2470.498,13.28,0.03,294.9
2021-08-20T09:43:03,42.805,6.029,-0.03,0.007,-0.02,102.0,102.0,100.0,13.3,1505.2,331.4,-0.8,1.9,2470.485,13.28,0.03,283.1
2021-08-20T09:46:03,42.805,6.029,-0.024,0.013,-0.008,101.0,102.0,100.0,13.4,1505.2,329.6,-0.8,1.8,2470.49,13.28,0.027,298.4
2021-08-20T09:49:03,42.805,6.029,-0.003,0.01,-0.014,102.0,102.0,100.0,13.3,1505.2,327.5,-0.8,1.8,2470.501,13.28,0.01,343.3
2021-08-20T09:52:03,42.805,6.029,-0.011,0.001,-0.011,103.0,102.0,100.0,13.4,1505.2,329.4,-0.8,1.8,2470.533,13.28,0.011,275.2
2021-08-20T09:55:03,42.805,6.029,-0.022,0.011,-0.001,101.0,102.0,101.0,13.3,1505.2,328.5,-0.8,1.9,2470.449,13.28,0.024,296.6